Regional Weather Roundup
Issued by NWS State College, PA

Home | Current Version | Previous Version | Text Only | Print | Product List | Glossary Off
Versions: 1 2 3 4 5 6 7 8 9 10 11 12 13 14 15 16 17 18 19 20 21 22 23 24 25 26 27 28 29 30 31 32 33 34 35 36 37 38 39 40 41 42 43 44 45 46 47 48 49 50

000
ASUS41 KCTP 191810
RWRCTP

REGIONAL WEATHER ROUNDUP
NATIONAL WEATHER SERVICE STATE COLLEGE PA
100 PM EST FRI JAN 19 2018

Note: "fair" indicates few or no clouds below 12,000 feet with no
significant weather and/or obstructions to visibility.

* = STATION THAT DOES NOT REPORT PRECIPITATION /E.G. RAIN...SNOW...ETC/
    THUNDER OR FOG.

PAZ002>004-007>009-013>016-020>023-029>032-191900-
WESTERN PENNSYLVANIA

CITY           SKY/WX    TMP DP  RH WIND       PRES   REMARKS
ERIE           FAIR      33  17  51 S20       29.95F
MEADVILLE      FAIR      29  15  56 S12       29.95F
FRANKLIN*      FAIR      32  15  49 SW15G22   29.97F
NEW CASTLE     FAIR      34  16  47 VRB6      30.03F
BEAVER COUNTY  SUNNY     34  18  51 SW13G18   30.03F
BUTLER*        FAIR      32  16  51 SW12G20   30.03F
PITTSBURGH INT FAIR      33  15  47 SW12      30.05F
PITTSBURGH     FAIR      33  13  43 SW14G22   30.05F
INDIANA*       SUNNY     32  16  51 W17G26    30.06F
LATROBE        SUNNY     32  16  51 SW17      30.09F
WASHINGTON CO* FAIR      35  14  42 SW17      30.10F
$$

PAZ004>006-010>012-017>019-024>028-033>037-041-042-045-046-049>053-191900-
CENTRAL PENNSYLVANIA

CITY           SKY/WX    TMP DP  RH WIND       PRES   REMARKS
BRADFORD       FAIR      31  17  56 SW17G25   29.89F
DUBOIS         FAIR      29  14  53 SW17G24   29.96F
CLEARFIELD     FAIR      33  15  47 SW13      29.98F
JOHNSTOWN      FAIR      34  17  50 W18       29.98F
ALTOONA        FAIR      38  20  48 SW9       30.00F
STATE COLLEGE  SUNNY     36  19  51 W12       29.99F
WILLIAMSPORT   FAIR      35  17  47 W6        30.00F
SELINSGROVE    FAIR      38  16  40 W5        30.02F
FT INDIANTOWN  FAIR      37  17  45 SW12      30.01F
CAPITAL CITY   FAIR      40  19  43 W10       30.03F
HARRISBURG     PTSUNNY   39  20  46 W10       30.02F
YORK           FAIR      40  19  43 W6        30.03F
$$

PAZ038>040-043-044-047-048-054-055-060>062-067>071-191900-
EASTERN PENNSYLVANIA

CITY           SKY/WX    TMP DP  RH WIND       PRES   REMARKS
SCRANTON       FAIR      31  16  54 SW13      29.96F
MOUNT POCONO   FAIR      30  16  56 W20G28    29.89F
ALLENTOWN      LGT RAIN  36  18  48 SW10      30.01F
QUAKERTOWN*    FAIR      34  16  47 MISG      30.02F
READING        FAIR      37  18  46 W12       30.02F
LANCASTER      FAIR      38  21  50 W9        30.03F
COATESVILLE    FAIR      37  18  44 VRB7      30.04F
POTTSTOWN      FAIR      36  16  44 W8        30.04F
BLUE BELL      FAIR      36  19  51 SW6       30.04F
DOYLESTOWN     FAIR      37  17  44 SW8       30.01F
WILLOW GROVE   NOT AVBL
NORTH PHILA    FAIR      41  18  39 W15       30.06F
PHILADELPHIA   PTSUNNY   43  15  32 W17       30.06F
$$



USA.gov is the U.S. government's official web portal to all federal, state and local government web resources and services.